Weather History for Casper, WY

Change the Weather History Date:

Sunday, January 8, 2012

  Actual Average Record
Temperature  
Mean Temperature 24 °F 25 °F  
Max Temperature 34 °F 35 °F 54 °F (2002)
Min Temperature 14 °F 14 °F -27 °F (1962)
Degree Days  
Heating Degree Days 41 40  
Month to date heating degree days 284 325  
Since 1 July heating degree days 3184 3454  
Cooling Degree Days 0 0  
Month to date cooling degree days 0 0  
Year to date cooling degree days 0 0  
Moisture  
Dew Point 12 °F    
Average Humidity 59    
Maximum Humidity 80    
Minimum Humidity 38    
Precipitation  
Precipitation 0.00 in 0.01 in 0.33 in (1985)
Month to date precipitation 0.00 0.13  
Year to date precipitation 0.00 0.13  
Snow  
Snow 0.00 in 0.30 in - ()
Month to date snowfall 0.0 2.6  
Since 1 July snowfall 26.7 33.1  
Snow Depth 0.00 in    
Sea Level Pressure  
Sea Level Pressure 30.26 in    
Wind  
Wind Speed 14 mph (SW)    
Max Wind Speed 25 mph    
Max Gust Speed 33 mph    
Visibility 10 miles    
Events      
T = Trace of Precipitation, MM = Missing Value Source: NWS Daily Summary

Daily Weather History Graph

Daily Weather History Graph

Search for Another Location

Airport:

Trip Planner

Search our weather history database for the weather conditions in past years. The results will help you decide how hot, cold, wet, or windy it might be!

Date:

Astronomy

Jan. 08, 2012 Rise Set
Actual Time 7:36 AM MST 4:48 PM MST
Civil Twilight 7:04 AM MST 5:20 PM MST
Nautical Twilight 6:29 AM MST 5:55 PM MST
Astronomical Twilight 5:55 AM MST 6:30 PM MST
Moon 4:35 PM MST (1/8) 6:56 AM MST (1/8)
Length of Visible Light 10h 15m
Length of Day
9h 12m
Full, 100% of the Moon is Illuminated
Jan 8
Full
Jan 9
Full
Jan 16
Last Quarter
Jan 23
New
Jan 30
First Quarter

Hourly Weather History & Observations

Time (MST) Temp. Windchill Dew Point Humidity Pressure Visibility Wind Dir Wind Speed Gust Speed Precip Events Conditions
12:53 AM 17.1 °F 5.0 °F 10.9 °F 77% 30.21 in 10.0 mi West 10.4 mph - N/A   Clear
1:53 AM 15.1 °F 5.2 °F 10.0 °F 80% 30.22 in 10.0 mi WSW 6.9 mph - N/A   Clear
2:53 AM 17.1 °F 11.7 °F 10.9 °F 77% 30.20 in 10.0 mi South 3.5 mph - N/A   Clear
3:53 AM 15.1 °F 6.4 °F 9.0 °F 77% 30.20 in 10.0 mi WSW 5.8 mph - N/A   Clear
4:53 AM 15.1 °F 6.4 °F 8.1 °F 74% 30.22 in 10.0 mi WSW 5.8 mph - N/A   Clear
5:53 AM 16.0 °F 3.6 °F 9.0 °F 74% 30.25 in 10.0 mi WSW 10.4 mph - N/A   Clear
6:53 AM 17.1 °F 5.8 °F 10.0 °F 74% 30.27 in 10.0 mi SW 9.2 mph - N/A   Clear
7:53 AM 15.1 °F 2.5 °F 9.0 °F 77% 30.29 in 10.0 mi SW 10.4 mph - N/A   Clear
8:53 AM 21.0 °F 8.6 °F 12.9 °F 71% 30.30 in 10.0 mi SW 12.7 mph 20.7 mph N/A   Clear
9:53 AM 24.1 °F 8.7 °F 12.9 °F 62% 30.29 in 10.0 mi SSW 23.0 mph 32.2 mph N/A   Clear
10:53 AM 27.0 °F 11.9 °F 12.9 °F 56% 30.30 in 10.0 mi SSW 25.3 mph 31.1 mph N/A   Clear
11:53 AM 30.0 °F 17.2 °F 12.9 °F 49% 30.27 in 10.0 mi SW 20.7 mph - N/A   Clear
12:53 PM 30.9 °F 17.8 °F 10.9 °F 43% 30.24 in 10.0 mi SSW 23.0 mph - N/A   Clear
1:53 PM 33.1 °F 20.6 °F 10.9 °F 40% 30.25 in 10.0 mi SW 23.0 mph - N/A   Clear
2:53 PM 34.0 °F 22.1 °F 12.0 °F 40% 30.24 in 10.0 mi SW 21.9 mph 27.6 mph N/A   Clear
3:53 PM 33.1 °F 21.2 °F 10.9 °F 40% 30.26 in 10.0 mi SSW 20.7 mph - N/A   Clear
4:53 PM 30.2 °F 19.3 °F 14.0 °F 51% 30.14 in 10.0 mi SW 15.0 mph - N/A   Clear
5:53 PM 28.9 °F 18.6 °F 14.0 °F 54% 30.27 in 10.0 mi SW 12.7 mph - N/A   Clear
6:53 PM 30.9 °F 20.2 °F 12.9 °F 47% 30.27 in 10.0 mi SSW 15.0 mph - N/A   Clear
7:53 PM 28.9 °F 21.1 °F 14.0 °F 54% 30.30 in 10.0 mi West 8.1 mph - N/A   Clear
8:53 PM 30.0 °F 20.0 °F 14.0 °F 51% 30.29 in 10.0 mi SW 12.7 mph - N/A   Clear
9:53 PM 30.0 °F 21.1 °F 15.1 °F 54% 30.29 in 10.0 mi SW 10.4 mph - N/A   Clear
10:53 PM 30.9 °F 21.2 °F 15.1 °F 52% 30.29 in 10.0 mi SW 12.7 mph - N/A   Clear
11:53 PM 30.0 °F 19.1 °F 15.1 °F 54% 30.29 in 10.0 mi SSW 15.0 mph - N/A   Clear